[[{"header":{"parameterUnit":"m.s-1","parameterCategory":1,"la1":30.2991,"la2":30.254,"lo1":-89.0895,"lo2":-89.0444,"dy":0.0017,"dx":0.0017,"nx":28,"ny":28,"refTime":"2025-01-15T03:00:00:Z","depth":0,"parameterNumber":2,"parameterNumberName":"U-component_of_WINDS"},"data":[0,0,0,0,0,0,0,0,0,0,0,0,0,0,0,0,0,0,0,0,0,0,0,0,0,0,0,0,0,0,0,0,0,0,0,0,0,0,0,0,0,0,0,0,0,0,0,0,0,0,0,0,0,0,0,0,0,0,-0.559,-0.5588,0,-0.5446,-0.5445,-0.5443,-0.5325,-0.5324,-0.5323,-0.5321,-0.5178,-0.5175,-0.5173,0,0,0,0,0,0,0,0,0,0,0,0,0,-0.5763,-0.5761,-0.559,-0.5588,-0.5586,-0.5447,-0.5445,-0.5443,-0.5325,-0.5324,-0.5322,-0.5321,-0.5179,-0.5176,-0.5172,0,0,0,0,0,0,0,0,0,0,0,0,0,-0.5661,-0.576,-0.559,-0.5511,-0.5502,-0.5447,-0.5445,-0.5442,-0.5326,-0.5324,-0.5322,-0.532,-0.518,-0.5176,-0.5172,-0.5185,0,0,-0.516,-0.5158,0,0,0,0,0,0,0,0,-0.5667,-0.5655,-0.5524,-0.5516,-0.5506,-0.5402,-0.5453,-0.5356,-0.5326,-0.5393,-0.5321,-0.5319,-0.5254,-0.5244,-0.5221,-0.5178,-0.5172,-0.5159,-0.5157,-0.5155,-0.5154,0,0,0,0,0,0,0,-0.5674,-0.566,-0.5533,-0.5523,-0.5512,-0.5483,-0.5466,-0.5434,-0.5336,-0.5387,-0.5378,-0.5362,-0.5249,-0.5225,-0.5217,-0.517,-0.516,-0.5156,-0.5154,-0.5152,-0.513,-0.5131,0,0,0,0,0,0,-0.5693,-0.5667,-0.5538,-0.5529,-0.5584,-0.5481,-0.5463,-0.5437,-0.5336,-0.5318,-0.5364,-0.5357,-0.5233,-0.5222,-0.5212,-0.522,-0.5155,-0.5152,-0.5149,-0.5128,-0.513,-0.5132,0,0,0,0,0,0,-0.5698,-0.5683,-0.5544,-0.5595,-0.5575,-0.548,-0.5453,-0.5435,-0.5412,-0.5319,-0.5301,-0.5358,-0.5231,-0.5217,-0.5192,-0.5213,-0.515,-0.5146,-0.5126,-0.5129,-0.5131,-0.5237,0,0,0,0,0,0,-0.5703,-0.5685,-0.5689,-0.5596,-0.5573,-0.5527,-0.5454,-0.5434,-0.5405,-0.5395,-0.5308,-0.5292,-0.5229,-0.5199,-0.5188,-0.5207,-0.5143,-0.5124,-0.5127,-0.513,-0.5231,-0.5243,-0.5253,0,0,0,0,0,-0.571,-0.5726,-0.569,-0.5675,-0.5576,-0.5528,-0.5515,-0.544,-0.5407,-0.541,-0.535,-0.5295,-0.5212,-0.5197,-0.5184,-0.5202,-0.5122,-0.5126,-0.513,-0.5227,-0.5241,-0.5253,0,0,0,0,0,0,-0.5825,-0.5712,-0.5671,-0.5658,-0.5603,-0.5508,-0.551,-0.5458,-0.5413,-0.5405,-0.5316,-0.5297,-0.5282,-0.5239,-0.5224,-0.5209,-0.516,-0.5162,-0.5238,-0.525,-0.5261,-0.5273,-0.514,0,0,0,0,0,-0.5848,-0.5818,-0.5721,-0.5719,-0.5693,-0.5607,-0.5583,-0.553,-0.547,-0.5447,-0.5385,-0.533,-0.5292,-0.5268,-0.5228,-0.5224,-0.5203,-0.523,-0.5241,-0.525,-0.5253,-0.5247,-0.5258,-0.5145,-0.5145,-0.5145,0,0,-0.5897,-0.5832,-0.5819,-0.574,-0.5692,-0.5663,-0.5588,-0.5561,-0.5539,-0.5443,-0.5416,-0.5368,-0.5301,-0.5287,-0.5277,-0.525,-0.5279,-0.5255,-0.5263,-0.5261,-0.5252,-0.5263,-0.5273,-0.5148,-0.5148,-0.5147,0,0,-0.5972,-0.5919,-0.5911,-0.5863,-0.579,-0.5732,-0.573,-0.5642,-0.5607,-0.5577,-0.5504,-0.5477,-0.5412,-0.5367,-0.5336,-0.5391,-0.5339,-0.538,-0.5438,-0.5433,-0.5442,-0.545,-0.547,-0.5478,-0.5383,-0.5383,-0.5384,0,-0.6043,-0.5995,-0.5914,-0.589,-0.5858,-0.5768,-0.5759,-0.5717,-0.5635,-0.5615,-0.5586,-0.5502,-0.545,-0.5423,-0.5437,-0.5414,-0.5409,-0.5391,-0.5447,-0.5454,-0.546,-0.5478,-0.5486,-0.5389,-0.5388,-0.5388,-0.5387,0,-0.6086,-0.6054,-0.6056,-0.5978,-0.5945,-0.593,-0.5846,-0.5823,-0.5772,-0.5717,-0.5688,-0.5622,-0.5566,-0.5556,-0.5507,-0.5522,-0.5507,-0.5464,-0.5413,-0.5478,-0.5493,-0.5499,-0.5397,-0.5395,-0.5393,-0.5392,0,0,-0.6231,-0.6106,-0.6108,-0.6071,-0.5983,-0.5957,-0.5937,-0.5881,-0.5863,-0.5809,-0.579,-0.5736,-0.5695,-0.5659,-0.5604,-0.56,-0.5648,-0.5556,-0.5553,-0.5576,-0.5661,-0.5695,-0.5704,-0.5612,-0.5613,-0.5613,-0.5666,0,-0.6292,-0.625,-0.6175,-0.6157,-0.6127,-0.604,-0.6022,-0.5967,-0.5914,-0.5881,-0.5823,-0.5787,-0.5735,-0.5713,-0.5704,-0.5644,-0.5664,-0.5639,-0.5594,-0.5594,-0.5615,-0.5712,-0.5748,-0.5802,-0.5672,-0.5673,-0.5673,0,-0.6359,-0.6308,-0.6288,-0.62,-0.6185,-0.617,-0.6112,-0.6081,-0.6016,-0.5978,-0.5937,-0.5876,-0.585,-0.5803,-0.5766,-0.5751,-0.5727,-0.5695,-0.5695,-0.5689,-0.5639,-0.571,-0.5817,-0.5826,-0.5682,-0.5681,-0.5681,0,-0.6468,-0.6395,-0.6372,-0.6343,-0.6241,-0.6232,-0.6189,-0.6122,-0.6092,-0.6041,-0.6022,-0.5969,-0.5941,-0.5902,-0.5828,-0.58,-0.5799,-0.5746,-0.5768,-0.577,-0.5773,-0.5774,-0.5879,-0.5757,-0.5756,-0.5756,-0.5756,0,-0.6545,-0.6536,-0.642,-0.6407,-0.6394,-0.6307,-0.6296,-0.6245,-0.6185,-0.6161,-0.6082,-0.6061,-0.5964,-0.5931,-0.5873,-0.5851,-0.5839,-0.5808,-0.5793,-0.5816,-0.582,-0.5801,-0.5796,-0.5758,-0.5758,-0.5757,-0.5757,0,-0.6666,-0.6588,-0.6558,-0.6462,-0.6438,-0.6432,-0.635,-0.6334,-0.6276,-0.6246,-0.6234,-0.6143,-0.61,-0.6022,-0.5958,-0.5918,-0.5909,-0.5883,-0.5932,-0.5922,-0.5949,-0.5948,-0.6046,-0.6055,-0.5927,-0.5928,-0.5929,0,-0.6721,-0.6712,-0.6615,-0.6592,-0.6551,-0.6516,-0.6484,-0.6398,-0.6369,-0.6292,-0.6286,-0.6236,-0.6192,-0.6128,-0.6057,-0.6007,-0.5979,-0.6017,-0.5971,-0.5994,-0.5981,-0.5983,-0.5981,-0.6028,-0.603,-0.6031,-0.6033,0,-0.6828,-0.6789,-0.6747,-0.6691,-0.6656,-0.6608,-0.6556,-0.6542,-0.6444,-0.6415,-0.637,-0.6335,-0.6268,-0.6221,-0.616,-0.6116,-0.6058,-0.6047,-0.605,-0.6074,-0.6103,-0.6088,-0.5961,-0.6046,-0.6044,-0.6044,-0.6043,-0.6042,-0.6918,-0.6905,-0.6834,-0.679,-0.6741,-0.6694,-0.6674,-0.6612,-0.6572,-0.651,-0.6461,-0.642,-0.6353,-0.6265,-0.6224,-0.619,-0.6163,-0.6167,-0.6168,-0.6171,-0.618,-0.6107,-0.6179,-0.6178,-0.6178,-0.6177,-0.6177,0,-0.7021,-0.697,-0.693,-0.6859,-0.6824,-0.677,-0.671,-0.6684,-0.6648,-0.659,-0.6548,-0.6495,-0.6448,-0.6372,-0.6318,-0.6306,-0.6279,-0.6295,-0.6296,-0.6287,-0.6207,-0.621,-0.6319,-0.6319,-0.6319,-0.6318,-0.6318,-0.6318,-0.7071,-0.7046,-0.6999,-0.6949,-0.6898,-0.6856,-0.6826,-0.6782,-0.6735,-0.6679,-0.6639,-0.6589,-0.6524,-0.6464,-0.6419,-0.6397,-0.6382,-0.6407,-0.6378,-0.6306,-0.6293,-0.628,-0.6283,-0.6404,-0.6405,-0.6461,-0.6461,-0.6462]},{"header":{"parameterUnit":"m.s-1","parameterCategory":1,"la1":30.2991,"la2":30.254,"lo1":-89.0895,"lo2":-89.0444,"dy":0.0017,"dx":0.0017,"nx":28,"ny":28,"refTime":"2025-01-15T03:00:00:Z","depth":0,"parameterNumber":3,"parameterNumberName":"V-component_of_WINDS"},"data":[0,0,0,0,0,0,0,0,0,0,0,0,0,0,0,0,0,0,0,0,0,0,0,0,0,0,0,0,0,0,0,0,0,0,0,0,0,0,0,0,0,0,0,0,0,0,0,0,0,0,0,0,0,0,0,0,0,0,-4.6147,-4.6147,0,-4.6115,-4.6115,-4.6114,-4.5973,-4.597,-4.5967,-4.5964,-4.5933,-4.5935,-4.5937,0,0,0,0,0,0,0,0,0,0,0,0,0,-4.6088,-4.6089,-4.6147,-4.6147,-4.6146,-4.6115,-4.6115,-4.6114,-4.5974,-4.597,-4.5966,-4.5962,-4.5932,-4.5935,-4.5937,0,0,0,0,0,0,0,0,0,0,0,0,0,-4.6091,-4.609,-4.6147,-4.6072,-4.6065,-4.6115,-4.6115,-4.6114,-4.5975,-4.597,-4.5965,-4.596,-4.5931,-4.5934,-4.5938,-4.6058,0,0,-4.5948,-4.5949,0,0,0,0,0,0,0,0,-4.6091,-4.6093,-4.6084,-4.6078,-4.607,-4.6043,-4.6082,-4.6095,-4.5976,-4.6009,-4.5963,-4.5958,-4.5974,-4.5973,-4.5978,-4.6056,-4.6055,-4.5948,-4.595,-4.5952,-4.5953,0,0,0,0,0,0,0,-4.6091,-4.6093,-4.6134,-4.6084,-4.6075,-4.6041,-4.6036,-4.6084,-4.602,-4.6006,-4.5996,-4.5994,-4.5969,-4.5975,-4.5976,-4.6054,-4.5948,-4.5951,-4.5953,-4.5955,-4.6229,-4.6234,0,0,0,0,0,0,-4.6101,-4.6094,-4.6135,-4.6133,-4.6068,-4.6046,-4.604,-4.6057,-4.6019,-4.6008,-4.5998,-4.5987,-4.5972,-4.5973,-4.5975,-4.6113,-4.5952,-4.5955,-4.5957,-4.6224,-4.623,-4.6236,0,0,0,0,0,0,-4.61,-4.6106,-4.6137,-4.6111,-4.6112,-4.6052,-4.6072,-4.6059,-4.6065,-4.6013,-4.6,-4.6016,-4.5968,-4.597,-4.6038,-4.611,-4.5956,-4.596,-4.6218,-4.6226,-4.6233,-4.639,0,0,0,0,0,0,-4.6099,-4.6106,-4.6151,-4.6113,-4.6114,-4.6201,-4.6076,-4.6062,-4.6071,-4.6056,-4.6026,-4.6017,-4.5964,-4.6034,-4.6041,-4.6111,-4.5962,-4.6211,-4.6222,-4.6231,-4.6378,-4.6402,-4.6423,0,0,0,0,0,-4.6097,-4.6197,-4.6154,-4.616,-4.6169,-4.6205,-4.6205,-4.6142,-4.6077,-4.6122,-4.6088,-4.6018,-4.6101,-4.6042,-4.6049,-4.6122,-4.6206,-4.6219,-4.623,-4.6368,-4.6397,-4.6422,0,0,0,0,0,0,-4.6245,-4.619,-4.6142,-4.6232,-4.6224,-4.6181,-4.6235,-4.6176,-4.6186,-4.6173,-4.6094,-4.6089,-4.6169,-4.6151,-4.6087,-4.6236,-4.6142,-4.6156,-4.6244,-4.6271,-4.6293,-4.6296,-4.5965,0,0,0,0,0,-4.6288,-4.6322,-4.6272,-4.6356,-4.6354,-4.6296,-4.6309,-4.6262,-4.625,-4.6246,-4.6218,-4.621,-4.6234,-4.6252,-4.6271,-4.6375,-4.6366,-4.6428,-4.6451,-4.6469,-4.6482,-4.6536,-4.6563,-4.6275,-4.6275,-4.6275,0,0,-4.6377,-4.6351,-4.6378,-4.6385,-4.6373,-4.641,-4.6294,-4.6338,-4.6365,-4.6253,-4.6315,-4.6295,-4.6281,-4.6367,-4.6404,-4.6356,-4.656,-4.6484,-4.65,-4.6502,-4.6552,-4.6579,-4.6603,-4.6283,-4.6282,-4.628,0,0,-4.6559,-4.6543,-4.6611,-4.6601,-4.6585,-4.6545,-4.6562,-4.6528,-4.6509,-4.657,-4.6487,-4.6518,-4.6562,-4.6555,-4.6558,-4.6738,-4.6673,-4.6746,-4.6863,-4.6917,-4.694,-4.6959,-4.7024,-4.7048,-4.6759,-4.676,-4.676,0,-4.6672,-4.6724,-4.6654,-4.6703,-4.6709,-4.6609,-4.6678,-4.6672,-4.6664,-4.667,-4.6616,-4.6668,-4.6652,-4.6736,-4.678,-4.6785,-4.6802,-4.6749,-4.6942,-4.6961,-4.6978,-4.7039,-4.7064,-4.6768,-4.6767,-4.6767,-4.6766,0,-4.6864,-4.6902,-4.6959,-4.6952,-4.6965,-4.7024,-4.6963,-4.6984,-4.6936,-4.6902,-4.6966,-4.6943,-4.6956,-4.6972,-4.6925,-4.705,-4.7021,-4.6956,-4.6859,-4.7016,-4.7072,-4.7095,-4.6781,-4.6778,-4.6775,-4.6773,0,0,-4.7138,-4.7092,-4.7114,-4.711,-4.7084,-4.7112,-4.7167,-4.7179,-4.7199,-4.7196,-4.7241,-4.728,-4.7219,-4.7222,-4.7174,-4.7221,-4.7366,-4.7149,-4.7148,-4.7191,-4.7503,-4.7552,-4.758,-4.7323,-4.7327,-4.733,-4.7504,0,-4.7312,-4.7402,-4.7341,-4.7442,-4.7476,-4.7381,-4.7429,-4.7419,-4.7389,-4.7414,-4.7381,-4.741,-4.7328,-4.7329,-4.7372,-4.7339,-4.7427,-4.7326,-4.7364,-4.7366,-4.7371,-4.7609,-4.7662,-4.7827,-4.7525,-4.7529,-4.7532,0,-4.7527,-4.7533,-4.7638,-4.7605,-4.7617,-4.7661,-4.7667,-4.7692,-4.7679,-4.7654,-4.7658,-4.7597,-4.7649,-4.7555,-4.7626,-4.7558,-4.757,-4.7557,-4.7562,-4.7563,-4.7459,-4.7618,-4.7878,-4.7904,-4.7565,-4.7562,-4.756,0,-4.7717,-4.7752,-4.7818,-4.7818,-4.7781,-4.7815,-4.7801,-4.7783,-4.7794,-4.78,-4.7807,-4.7819,-4.7826,-4.7838,-4.7782,-4.7718,-4.7861,-4.7762,-4.7843,-4.7845,-4.7878,-4.7876,-4.8144,-4.7885,-4.7885,-4.7884,-4.7884,0,-4.7918,-4.7986,-4.7903,-4.7945,-4.8018,-4.7947,-4.8021,-4.7998,-4.7983,-4.8018,-4.7937,-4.7973,-4.7897,-4.7925,-4.7882,-4.7948,-4.7951,-4.7933,-4.7921,-4.7941,-4.7944,-4.7948,-4.7936,-4.7891,-4.7889,-4.7888,-4.7887,0,-4.8143,-4.809,-4.8157,-4.8117,-4.8109,-4.8165,-4.8131,-4.8168,-4.8132,-4.8178,-4.8185,-4.813,-4.8159,-4.8104,-4.8126,-4.8097,-4.819,-4.816,-4.8195,-4.8186,-4.827,-4.8264,-4.8551,-4.8586,-4.8304,-4.8307,-4.8309,0,-4.8275,-4.8324,-4.829,-4.8308,-4.8299,-4.8328,-4.8339,-4.8271,-4.8286,-4.8275,-4.8314,-4.8336,-4.8349,-4.84,-4.8362,-4.8378,-4.8348,-4.8448,-4.835,-4.8369,-4.8351,-4.8349,-4.8354,-4.8468,-4.8472,-4.8474,-4.8477,0,-4.8515,-4.8486,-4.8505,-4.8515,-4.853,-4.8535,-4.8534,-4.8554,-4.8482,-4.8503,-4.8531,-4.8542,-4.8563,-4.8586,-4.8594,-4.858,-4.8518,-4.8508,-4.8527,-4.8549,-4.8567,-4.8559,-4.825,-4.8502,-4.8499,-4.8497,-4.8496,-4.8495,-4.8697,-4.8737,-4.8719,-4.8743,-4.8735,-4.8736,-4.8769,-4.8738,-4.8759,-4.8771,-4.873,-4.8768,-4.8754,-4.8757,-4.8751,-4.878,-4.8735,-4.8764,-4.8771,-4.8779,-4.8793,-4.8562,-4.8781,-4.878,-4.8779,-4.8778,-4.8778,0,-4.8933,-4.8917,-4.8939,-4.894,-4.896,-4.8897,-4.8893,-4.8914,-4.8948,-4.8939,-4.8955,-4.8987,-4.9009,-4.8974,-4.899,-4.902,-4.8992,-4.9027,-4.9024,-4.9022,-4.8832,-4.8813,-4.9049,-4.9049,-4.9049,-4.9049,-4.9049,-4.9049,-4.9058,-4.9123,-4.9093,-4.9153,-4.9135,-4.9171,-4.9175,-4.9176,-4.9168,-4.9208,-4.9226,-4.9202,-4.9183,-4.9197,-4.9215,-4.9204,-4.9214,-4.926,-4.9239,-4.9062,-4.9036,-4.901,-4.8993,-4.9263,-4.9263,-4.9427,-4.9429,-4.943]}]]